RH
100 100 99 100 100 100 96 90 92 94 81 78 99 97 99 90 81 81 82 75 78 77 60 55 48 44 47
100 100 100 100 100 93 100 92 94 90 86 94 96 94 96 98 90 89 89 83 79 65 55 50 47 51 57
100 100 100 100 100 97 84 90 100 86 92 98 96 96 88 92 88 94 81 75 66 57 52 48 46 52 60
100 100 100 100 100 100 100 98 88 100 100 100 99 96 87 89 86 75 66 62 58 52 49 48 51 58 72
52 64 78 84 85 90 89 96 100 100 97 98 94 85 82 77 68 59 58 55 53 51 50 49 57 70 80
58 62 81 86 88 91 98 100 100 87 94 90 82 77 73 66 58 56 56 52 50 50 52 52 65 78 90
86 97 95 91 93 100 100 100 98 97 90 83 78 72 65 61 58 58 54 50 51 50 54 61 85 90 96
94 100 100 100 100 100 97 100 100 90 86 79 74 68 63 61 60 56 54 52 54 53 60 72 96 96 98
77 88 92 100 100 98 93 89 82 69 70 77 72 66 65 64 60 58 56 54 55 57 70 84 97 100 87
39 47 52 72 89 76 51 44 44 52 51 61 71 69 69 66 60 57 58 56 57 61 77 90 97 96 92
35 35 36 36 36 35 35 35 36 38 40 43 49 56 59 58 56 55 56 57 60 72 75 89 100 97 97
36 35 34 34 35 35 35 34 34 35 35 40 42 47 50 52 54 55 57 61 72 76 83 100 95 100 89
35 32 35 35 36 37 36 35 36 35 35 38 41 44 48 51 55 60 61 70 77 89 99 95 100 87 94
48 42 39 36 36 35 35 35 38 42 43 45 56 57 61 63 64 66 75 83 91 93 97 97 83 97 82
64 64 59 52 47 46 47 52 56 60 64 60 59 68 66 72 82 88 88 95 90 99 91 85 97 89 85
80 75 73 70 69 71 70 71 70 72 71 79 86 86 87 83 91 93 95 89 91 86 96 99 97 83 85
90 81 83 78 81 81 78 81 83 85 81 84 86 84 86 88 93 93 88 82 98 94 98 91 80 78 72
Wind_Speed
77 77 78 78 76 76 78 78 76 75 77 67 65 64 61 63 63 63 64 66 67 70 73 76 78 80 81
80 81 81 81 83 83 82 81 80 79 72 69 67 66 62 63 65 64 65 68 69 73 73 76 79 80 82
86 85 84 85 88 88 88 82 80 77 70 70 68 64 62 63 64 66 68 71 72 73 76 78 80 81 84
94 89 87 83 82 85 86 85 75 70 70 71 66 64 65 64 67 70 71 72 74 76 78 81 82 84 86
92 93 94 91 88 85 79 73 70 70 69 69 67 66 67 70 70 72 72 74 76 79 81 83 84 86 88
81 77 76 74 74 73 72 71 71 71 70 70 69 69 71 72 73 74 75 76 78 81 83 85 86 89 89
75 75 76 75 74 74 74 73 73 73 73 73 73 74 74 75 77 77 78 80 82 84 86 87 88 91 92
77 78 78 77 77 77 76 76 77 77 77 77 78 79 78 79 81 81 82 84 85 88 89 89 90 93 95
82 81 80 80 80 79 79 80 79 79 80 80 82 82 83 84 84 84 86 88 89 92 92 91 94 95 99
86 85 84 83 83 83 82 81 81 82 82 82 84 86 87 89 88 88 90 92 94 95 94 95 97 100 102
89 87 86 85 85 84 84 83 83 83 84 84 86 88 89 90 92 93 94 96 98 97 97 98 99 103 106
91 89 88 88 87 86 86 86 86 86 86 87 88 90 91 92 94 97 98 98 99 101 100 101 104 106 111
94 94 93 91 91 92 91 89 89 89 90 90 91 92 93 95 97 99 99 100 102 102 102 105 108 112 113
98 98 98 97 96 94 94 93 93 93 92 92 92 94 96 98 100 101 102 103 103 105 108 110 113 113 115
101 100 98 97 96 96 95 95 94 94 95 96 97 98 100 102 103 103 105 106 107 109 112 114 115 116 118
105 102 100 99 99 98 99 98 98 99 99 100 102 103 105 106 106 106 109 111 113 114 115 116 118 118 118
107 106 105 104 104 103 103 103 103 104 105 106 108 109 109 109 110 113 115 117 116 119 118 120 121 118 119
Wind_Direction
272 274 277 278 279 280 283 287 289 291 295 288 288 289 285 285 290 293 298 300 303 306 308 311 314 316 318
269 272 275 276 278 280 283 286 288 291 289 285 286 287 285 285 288 293 297 301 303 304 307 309 312 316 317
267 270 272 274 277 281 284 285 287 287 284 283 285 284 286 286 290 293 296 299 301 303 306 309 311 314 315
267 269 270 273 274 277 282 284 284 282 282 284 284 283 285 289 290 294 296 298 300 303 306 308 311 313 314
267 268 268 270 272 275 277 278 278 279 280 280 280 281 284 287 290 293 295 298 300 303 306 308 310 312 313
264 266 268 268 270 272 274 275 276 278 279 278 278 279 283 286 289 292 295 298 300 303 306 308 310 310 313
261 263 266 268 269 270 272 274 276 276 278 278 279 280 283 287 290 292 295 298 301 303 305 307 308 310 312
262 263 265 267 268 269 271 272 274 276 277 279 280 281 284 286 289 291 294 297 300 303 304 306 307 309 311
261 262 264 266 267 269 271 272 273 274 276 277 278 281 283 285 288 292 294 297 299 302 303 305 305 308 310
261 262 264 265 267 268 270 271 273 274 275 276 278 280 283 285 289 291 293 296 298 300 302 303 305 306 310
261 262 263 264 266 269 270 271 273 274 276 278 279 280 282 286 289 290 293 295 297 299 301 303 303 305 308
259 261 262 264 267 269 271 272 273 275 277 279 280 282 284 286 288 291 292 295 296 298 302 301 303 306 307
259 260 262 265 267 269 270 272 274 275 276 278 280 283 284 285 287 289 292 294 296 299 299 301 303 304 307
259 260 261 264 267 269 271 273 275 276 279 280 281 281 283 285 287 290 293 294 296 298 299 301 303 305 306
259 262 264 266 268 269 271 273 274 275 277 278 280 283 284 286 288 291 292 294 296 297 299 302 303 304 305
260 262 265 267 269 269 270 272 273 275 277 279 281 282 284 287 288 290 292 294 295 298 299 300 301 303 303
261 263 264 265 267 269 271 273 274 275 277 279 280 282 284 285 288 290 292 294 296 296 298 299 300 301 304